| time (UTC) | temp F | wind direction | speed MPH | gust MPH | rain 1hr in | rain 24hr in | rain mn in | humidity % | barometer mb |
| 20260506091240 | 55 | 337 | 5.0 | 6.0 | 0.00 | 0.00 | 0.00 | 85 | 1010.7 |
| 20260506090738 | 55 | 3 | 2.0 | 2.0 | 0.00 | 0.00 | 0.00 | 85 | 1010.4 |
| 20260506090235 | 55 | 328 | 6.0 | 7.0 | 0.00 | 0.00 | 0.00 | 85 | 1010.5 |
| 20260506085731 | 55 | 349 | 5.0 | 6.0 | 0.00 | 0.00 | 0.00 | 85 | 1010.5 |
| 20260506085228 | 55 | 342 | 4.0 | 5.0 | 0.00 | 0.00 | 0.00 | 85 | 1010.4 |
| 20260506084724 | 55 | 3 | 5.0 | 6.0 | 0.00 | 0.00 | 0.00 | 85 | 1010.5 |
| 20260506084220 | 55 | 6 | 4.0 | 5.0 | 0.00 | 0.00 | 0.00 | 85 | 1010.4 |
| 20260506083718 | 55 | 21 | 4.0 | 7.0 | 0.00 | 0.00 | 0.00 | 84 | 1010.4 |
| 20260506083216 | 55 | 355 | 4.0 | 6.0 | 0.00 | 0.00 | 0.00 | 84 | 1010.4 |
| 20260506082713 | 55 | 33 | 6.0 | 7.0 | 0.00 | 0.00 | 0.00 | 84 | 1010.5 |
| 20260506082208 | 55 | 355 | 5.0 | 6.0 | 0.00 | 0.00 | 0.00 | 85 | 1010.1 |
| 20260506081706 | 55 | 26 | 4.0 | 5.0 | 0.00 | 0.00 | 0.00 | 85 | 1010.1 |
| 20260506081158 | 55 | 7 | 5.0 | 7.0 | 0.00 | 0.00 | 0.00 | 85 | 1010.0 |
| 20260506080656 | 55 | 3 | 8.0 | 10.0 | 0.00 | 0.00 | 0.00 | 85 | 1010.1 |
| 20260506080152 | 55 | 41 | 4.0 | 6.0 | 0.00 | 0.00 | 0.00 | 85 | 1010.0 |
| 20260506073136 | 56 | 9 | 3.0 | 5.0 | 0.00 | 0.00 | 0.00 | 87 | 1010.2 |
| 20260506072633 | 56 | 355 | 4.0 | 5.0 | 0.00 | 0.00 | 0.00 | 86 | 1010.5 |
| 20260506072131 | 56 | 337 | 3.0 | 5.0 | 0.00 | 0.00 | 0.00 | 87 | 1010.5 |
| 20260506071628 | 56 | 330 | 4.0 | 5.0 | 0.00 | 0.00 | 0.00 | 87 | 1010.4 |
| 20260506071126 | 56 | 19 | 3.0 | 5.0 | 0.00 | 0.00 | 0.00 | 87 | 1010.0 |
| 20260506070622 | 56 | 355 | 4.0 | 5.0 | 0.00 | 0.00 | 0.00 | 87 | 1010.2 |
| 20260506070119 | 56 | 11 | 4.0 | 5.0 | 0.00 | 0.00 | 0.00 | 88 | 1010.1 |
| 20260506062057 | 57 | 58 | 3.0 | 5.0 | 0.00 | 0.00 | 0.00 | 86 | 1009.4 |
| 20260506061552 | 57 | 74 | 4.0 | 7.0 | 0.00 | 0.00 | 0.00 | 86 | 1009.4 |
| 20260506061050 | 57 | 20 | 4.0 | 5.0 | 0.00 | 0.00 | 0.00 | 86 | 1009.2 |
| 20260506060549 | 57 | 40 | 4.0 | 5.0 | 0.00 | 0.00 | 0.00 | 86 | 1009.9 |
| 20260506051017 | 58 | 29 | 7.0 | 8.0 | 0.00 | 0.00 | 0.00 | 84 | 1009.7 |
| 20260506050515 | 58 | 21 | 5.0 | 6.0 | 0.00 | 0.00 | 0.00 | 84 | 1010.1 |
| 20260506045005 | 58 | 27 | 7.0 | 8.0 | 0.00 | 0.00 | 0.00 | 83 | 1009.9 |
| 20260506044503 | 58 | 25 | 3.0 | 5.0 | 0.00 | 0.00 | 0.00 | 83 | 1009.9 |
| 20260506043959 | 58 | 333 | 9.0 | 10.0 | 0.00 | 0.00 | 0.00 | 83 | 1010.0 |
| 20260506043456 | 59 | 315 | 8.0 | 10.0 | 0.00 | 0.00 | 0.00 | 83 | 1009.8 |
| 20260506042954 | 59 | 0 | 7.0 | 8.0 | 0.00 | 0.00 | 0.00 | 83 | 1010.0 |
| 20260506042449 | 59 | 29 | 5.0 | 5.0 | 0.00 | 0.00 | 0.00 | 83 | 1009.8 |
| 20260506041946 | 59 | 357 | 3.0 | 3.0 | 0.00 | 0.00 | 0.00 | 83 | 1009.7 |
| 20260506041444 | 59 | 348 | 5.0 | 6.0 | 0.00 | 0.00 | 0.00 | 83 | 1009.4 |
| 20260506040941 | 59 | 351 | 5.0 | 7.0 | 0.00 | 0.00 | 0.00 | 83 | 1009.8 |
| 20260506040438 | 59 | 352 | 7.0 | 9.0 | 0.00 | 0.00 | 0.00 | 83 | 1009.9 |
| 20260506035934 | 59 | 357 | 4.0 | 5.0 | 0.00 | 0.00 | 0.00 | 82 | 1009.9 |
| 20260506035432 | 59 | 328 | 7.0 | 9.0 | 0.00 | 0.00 | 0.00 | 82 | 1009.7 |
| 20260506034928 | 60 | 349 | 7.0 | 9.0 | 0.00 | 0.00 | 0.00 | 81 | 1009.9 |
| 20260506034426 | 60 | 341 | 6.0 | 7.0 | 0.00 | 0.00 | 0.00 | 81 | 1009.9 |
| 20260506033923 | 60 | 359 | 6.0 | 7.0 | 0.00 | 0.00 | 0.00 | 80 | 1009.9 |
| 20260506033420 | 60 | 344 | 5.0 | 8.0 | 0.00 | 0.00 | 0.00 | 80 | 1009.7 |
| 20260506032917 | 61 | 4 | 5.0 | 7.0 | 0.00 | 0.00 | 0.00 | 80 | 1009.8 |
| 20260506032414 | 61 | 346 | 6.0 | 8.0 | 0.00 | 0.00 | 0.00 | 80 | 1009.3 |
| 20260506031910 | 61 | 15 | 6.0 | 8.0 | 0.00 | 0.00 | 0.00 | 80 | 1009.5 |
| 20260506031408 | 61 | 37 | 7.0 | 8.0 | 0.00 | 0.00 | 0.00 | 80 | 1009.0 |
| 20260506030905 | 62 | 22 | 6.0 | 8.0 | 0.00 | 0.00 | 0.00 | 80 | 1008.9 |
| 20260506030403 | 62 | 16 | 5.0 | 7.0 | 0.00 | 0.00 | 0.00 | 80 | 1008.5 |
| 20260506025900 | 62 | 3 | 7.0 | 8.0 | 0.00 | 0.00 | 0.00 | 79 | 1008.7 |
| 20260506025356 | 62 | 11 | 7.0 | 9.0 | 0.00 | 0.00 | 0.00 | 79 | 1008.7 |
| 20260506024854 | 62 | 37 | 6.0 | 8.0 | 0.00 | 0.00 | 0.00 | 79 | 1008.7 |
| 20260506024351 | 62 | 339 | 6.0 | 7.0 | 0.00 | 0.00 | 0.00 | 79 | 1008.6 |
| 20260506023846 | 63 | 8 | 6.0 | 7.0 | 0.00 | 0.00 | 0.00 | 79 | 1008.6 |
| 20260506023344 | 63 | 13 | 9.0 | 10.0 | 0.00 | 0.00 | 0.00 | 79 | 1008.4 |
| 20260506022840 | 63 | 12 | 5.0 | 8.0 | 0.00 | 0.00 | 0.00 | 80 | 1008.2 |
| 20260506022338 | 63 | 9 | 5.0 | 8.0 | 0.00 | 0.00 | 0.00 | 80 | 1007.5 |
| 20260506021836 | 63 | 338 | 8.0 | 10.0 | 0.00 | 0.00 | 0.00 | 79 | 1007.9 |
| 20260506021332 | 64 | 6 | 6.0 | 8.0 | 0.00 | 0.00 | 0.00 | 79 | 1007.8 |
| 20260506020829 | 64 | 12 | 6.0 | 7.0 | 0.00 | 0.00 | 0.00 | 78 | 1007.7 |
| 20260506020327 | 64 | 346 | 7.0 | 9.0 | 0.00 | 0.00 | 0.00 | 78 | 1007.7 |
| 20260506015824 | 64 | 39 | 5.0 | 6.0 | 0.00 | 0.00 | 0.00 | 78 | 1007.3 |
| 20260506015322 | 64 | 38 | 5.0 | 6.0 | 0.00 | 0.00 | 0.00 | 78 | 1007.5 |
| 20260506014818 | 64 | 353 | 5.0 | 6.0 | 0.00 | 0.00 | 0.00 | 77 | 1007.5 |
| 20260506014315 | 65 | 357 | 3.0 | 6.0 | 0.00 | 0.00 | 0.00 | 77 | 1007.6 |
| 20260506013812 | 65 | 332 | 5.0 | 8.0 | 0.00 | 0.00 | 0.00 | 77 | 1007.5 |
| 20260506013309 | 65 | 5 | 4.0 | 5.0 | 0.00 | 0.00 | 0.00 | 76 | 1007.0 |
| 20260506012806 | 65 | 23 | 4.0 | 5.0 | 0.00 | 0.00 | 0.00 | 75 | 1007.0 |
| 20260506012307 | 66 | 3 | 7.0 | 9.0 | 0.00 | 0.00 | 0.00 | 75 | 1006.7 |
| 20260506011800 | 66 | 358 | 4.0 | 5.0 | 0.00 | 0.00 | 0.00 | 75 | 1006.8 |
| 20260506011256 | 66 | 331 | 5.0 | 6.0 | 0.00 | 0.00 | 0.00 | 75 | 1006.8 |
| 20260506010754 | 66 | 3 | 8.0 | 11.0 | 0.00 | 0.00 | 0.00 | 75 | 1006.6 |
| 20260506010252 | 67 | 359 | 9.0 | 11.0 | 0.00 | 0.00 | 0.00 | 75 | 1006.2 |
| 20260506005749 | 67 | 33 | 7.0 | 11.0 | 0.00 | 0.00 | 0.00 | 75 | 1006.2 |
| 20260506005245 | 67 | 32 | 6.0 | 7.0 | 0.00 | 0.00 | 0.00 | 75 | 1005.8 |
| 20260506004741 | 68 | 358 | 5.0 | 8.0 | 0.00 | 0.00 | 0.00 | 74 | 1006.0 |
| 20260506004239 | 68 | 42 | 6.0 | 8.0 | 0.00 | 0.00 | 0.00 | 74 | 1005.8 |
| 20260506003735 | 69 | 355 | 6.0 | 7.0 | 0.00 | 0.00 | 0.00 | 72 | 1005.5 |
| 20260506003231 | 69 | 350 | 9.0 | 10.0 | 0.00 | 0.00 | 0.00 | 72 | 1005.7 |
| 20260506002727 | 69 | 349 | 7.0 | 9.0 | 0.00 | 0.00 | 0.00 | 72 | 1006.0 |
| 20260506002224 | 69 | 11 | 8.0 | 9.0 | 0.00 | 0.00 | 0.00 | 71 | 1005.9 |
| 20260506001720 | 70 | 16 | 5.0 | 5.0 | 0.00 | 0.00 | 0.00 | 71 | 1005.7 |
| 20260506001217 | 70 | 24 | 6.0 | 7.0 | 0.00 | 0.00 | 0.00 | 70 | 1005.5 |
| 20260506000714 | 70 | 356 | 5.0 | 7.0 | 0.00 | 0.00 | 0.00 | 70 | 1005.8 |
| 20260506000212 | 70 | 12 | 5.0 | 7.0 | 0.00 | 0.00 | 0.00 | 70 | 1005.8 |
| 20260505235709 | 70 | 346 | 9.0 | 10.0 | 0.00 | 0.00 | 0.00 | 69 | 1005.9 |
| 20260505235207 | 71 | 18 | 6.0 | 7.0 | 0.00 | 0.00 | 0.00 | 68 | 1005.8 |
| 20260505234703 | 71 | 356 | 7.0 | 9.0 | 0.00 | 0.00 | 0.00 | 67 | 1005.8 |
| 20260505234200 | 71 | 6 | 6.0 | 8.0 | 0.00 | 0.00 | 0.00 | 68 | 1005.5 |
| 20260505233656 | 72 | 1 | 5.0 | 6.0 | 0.00 | 0.00 | 0.00 | 69 | 1005.7 |
| 20260505233155 | 72 | 5 | 7.0 | 8.0 | 0.00 | 0.00 | 0.00 | 68 | 1005.4 |
| 20260505232652 | 73 | 0 | 7.0 | 9.0 | 0.00 | 0.00 | 0.00 | 68 | 1005.6 |
| 20260505232149 | 73 | 13 | 8.0 | 10.0 | 0.00 | 0.00 | 0.00 | 68 | 1005.4 |
| 20260505231645 | 73 | 351 | 8.0 | 10.0 | 0.00 | 0.00 | 0.00 | 67 | 1005.5 |
| 20260505231144 | 74 | 9 | 11.0 | 13.0 | 0.00 | 0.00 | 0.00 | 66 | 1005.4 |
| 20260505230637 | 75 | 342 | 8.0 | 9.0 | 0.00 | 0.00 | 0.00 | 67 | 1005.3 |
| 20260505230133 | 75 | 13 | 5.0 | 7.0 | 0.00 | 0.00 | 0.00 | 66 | 1005.4 |
| 20260505225629 | 75 | 358 | 5.0 | 6.0 | 0.00 | 0.00 | 0.00 | 65 | 1005.3 |
| 20260505225126 | 76 | 31 | 8.0 | 10.0 | 0.00 | 0.00 | 0.00 | 64 | 1005.4 |
| 20260505224622 | 77 | 21 | 7.0 | 9.0 | 0.00 | 0.00 | 0.00 | 63 | 1005.0 |
| 20260505224120 | 78 | 14 | 7.0 | 13.0 | 0.00 | 0.00 | 0.00 | 61 | 1005.1 |
| 20260505223617 | 78 | 29 | 7.0 | 8.0 | 0.00 | 0.00 | 0.00 | 60 | 1005.2 |
| 20260505223113 | 78 | 25 | 7.0 | 8.0 | 0.00 | 0.00 | 0.00 | 62 | 1005.3 |
| 20260505222610 | 79 | 313 | 5.0 | 7.0 | 0.00 | 0.00 | 0.00 | 63 | 1004.8 |
| 20260505222106 | 80 | 349 | 6.0 | 8.0 | 0.00 | 0.00 | 0.00 | 62 | 1005.0 |
| 20260505221603 | 81 | 15 | 8.0 | 9.0 | 0.00 | 0.00 | 0.00 | 60 | 1005.0 |
| 20260505221059 | 81 | 339 | 6.0 | 7.0 | 0.00 | 0.00 | 0.00 | 61 | 1004.9 |
| 20260505220556 | 82 | 15 | 6.0 | 7.0 | 0.00 | 0.00 | 0.00 | 60 | 1004.8 |
| 20260505220054 | 82 | 331 | 5.0 | 7.0 | 0.00 | 0.00 | 0.00 | 60 | 1004.6 |
| 20260505215552 | 83 | 15 | 7.0 | 8.0 | 0.00 | 0.00 | 0.00 | 56 | 1004.9 |
| 20260505215050 | 84 | 354 | 6.0 | 8.0 | 0.00 | 0.00 | 0.00 | 56 | 1004.8 |
| 20260505214548 | 84 | 6 | 9.0 | 10.0 | 0.00 | 0.00 | 0.00 | 54 | 1004.7 |
| 20260505214044 | 84 | 10 | 5.0 | 7.0 | 0.00 | 0.00 | 0.00 | 53 | 1004.7 |
| 20260505213542 | 85 | 43 | 5.0 | 6.0 | 0.00 | 0.00 | 0.00 | 49 | 1004.6 |
| 20260505213038 | 85 | 27 | 4.0 | 5.0 | 0.00 | 0.00 | 0.00 | 48 | 1004.8 |
| 20260505212535 | 86 | 39 | 5.0 | 7.0 | 0.00 | 0.00 | 0.00 | 45 | 1004.8 |
| 20260505212032 | 86 | 352 | 5.0 | 6.0 | 0.00 | 0.00 | 0.00 | 46 | 1004.8 |
| 20260505211529 | 86 | 0 | 4.0 | 6.0 | 0.00 | 0.00 | 0.00 | 45 | 1004.8 |
| 20260505211026 | 86 | 39 | 4.0 | 6.0 | 0.00 | 0.00 | 0.00 | 49 | 1004.9 |
| 20260505210522 | 86 | 333 | 5.0 | 10.0 | 0.00 | 0.00 | 0.00 | 47 | 1004.8 |
| 20260505210020 | 86 | 48 | 5.0 | 8.0 | 0.00 | 0.00 | 0.00 | 48 | 1005.0 |
| 20260505205518 | 86 | 344 | 7.0 | 8.0 | 0.00 | 0.00 | 0.00 | 47 | 1004.7 |
| 20260505205014 | 85 | 358 | 5.0 | 7.0 | 0.00 | 0.00 | 0.00 | 50 | 1004.7 |
| 20260505204512 | 85 | 340 | 8.0 | 9.0 | 0.00 | 0.00 | 0.00 | 48 | 1005.0 |
| 20260505204009 | 86 | 358 | 8.0 | 9.0 | 0.00 | 0.00 | 0.00 | 49 | 1004.9 |
| 20260505203506 | 87 | 282 | 7.0 | 9.0 | 0.00 | 0.00 | 0.00 | 49 | 1005.1 |
| 20260505203003 | 87 | 269 | 3.0 | 5.0 | 0.00 | 0.00 | 0.00 | 55 | 1005.1 |
| 20260505202459 | 86 | 260 | 4.0 | 5.0 | 0.00 | 0.00 | 0.00 | 53 | 1005.1 |
| 20260505201954 | 87 | 254 | 5.0 | 6.0 | 0.00 | 0.00 | 0.00 | 52 | 1004.8 |
| 20260505201452 | 87 | 277 | 4.0 | 5.0 | 0.00 | 0.00 | 0.00 | 54 | 1005.0 |
| 20260505200949 | 86 | 315 | 5.0 | 6.0 | 0.00 | 0.00 | 0.00 | 53 | 1004.9 |
| 20260505200447 | 86 | 246 | 4.0 | 6.0 | 0.00 | 0.00 | 0.00 | 53 | 1005.1 |
| 20260505195943 | 86 | 297 | 5.0 | 7.0 | 0.00 | 0.00 | 0.00 | 52 | 1005.2 |
| 20260505195440 | 86 | 271 | 8.0 | 9.0 | 0.00 | 0.00 | 0.00 | 51 | 1005.3 |
| 20260505194937 | 87 | 281 | 5.0 | 6.0 | 0.00 | 0.00 | 0.00 | 52 | 1005.4 |
| 20260505194435 | 86 | 292 | 6.0 | 7.0 | 0.00 | 0.00 | 0.00 | 52 | 1005.3 |
| 20260505193934 | 86 | 253 | 5.0 | 6.0 | 0.00 | 0.00 | 0.00 | 55 | 1005.4 |
| 20260505193432 | 86 | 294 | 6.0 | 8.0 | 0.00 | 0.00 | 0.00 | 54 | 1005.4 |
| 20260505192930 | 86 | 241 | 5.0 | 6.0 | 0.00 | 0.00 | 0.00 | 56 | 1005.5 |
| 20260505192428 | 86 | 225 | 5.0 | 6.0 | 0.00 | 0.00 | 0.00 | 57 | 1005.4 |
| 20260505191925 | 86 | 243 | 4.0 | 5.0 | 0.00 | 0.00 | 0.00 | 60 | 1005.5 |
| 20260505191424 | 85 | 249 | 5.0 | 7.0 | 0.00 | 0.00 | 0.00 | 61 | 1005.2 |
| 20260505190920 | 85 | 257 | 8.0 | 9.0 | 0.00 | 0.00 | 0.00 | 59 | 1005.4 |
| 20260505190416 | 86 | 267 | 8.0 | 9.0 | 0.00 | 0.00 | 0.00 | 58 | 1005.2 |
| 20260505185911 | 86 | 229 | 4.0 | 5.0 | 0.00 | 0.00 | 0.00 | 63 | 1005.4 |
| 20260505185409 | 85 | 249 | 6.0 | 8.0 | 0.00 | 0.00 | 0.00 | 62 | 1005.4 |
| 20260505184904 | 84 | 253 | 6.0 | 7.0 | 0.00 | 0.00 | 0.00 | 61 | 1005.3 |
| 20260505184401 | 84 | 235 | 5.0 | 7.0 | 0.00 | 0.00 | 0.00 | 65 | 1005.2 |
| 20260505183859 | 84 | 242 | 5.0 | 6.0 | 0.00 | 0.00 | 0.00 | 64 | 1005.3 |
| 20260505183355 | 84 | 198 | 7.0 | 10.0 | 0.00 | 0.00 | 0.00 | 64 | 1005.2 |
| 20260505182852 | 83 | 229 | 6.0 | 8.0 | 0.00 | 0.00 | 0.00 | 66 | 1005.1 |
| 20260505182349 | 83 | 239 | 7.0 | 9.0 | 0.00 | 0.00 | 0.00 | 65 | 1005.0 |
| 20260505181845 | 82 | 258 | 6.0 | 7.0 | 0.00 | 0.00 | 0.00 | 66 | 1005.3 |
| 20260505181343 | 83 | 205 | 10.0 | 11.0 | 0.00 | 0.00 | 0.00 | 64 | 1005.0 |
| 20260505180839 | 82 | 210 | 8.0 | 9.0 | 0.00 | 0.00 | 0.00 | 66 | 1005.4 |
| 20260505180336 | 82 | 198 | 7.0 | 8.0 | 0.00 | 0.00 | 0.00 | 67 | 1005.5 |
| 20260505175833 | 82 | 234 | 8.0 | 9.0 | 0.00 | 0.00 | 0.00 | 67 | 1005.4 |
| 20260505175329 | 81 | 236 | 9.0 | 11.0 | 0.00 | 0.00 | 0.00 | 67 | 1005.3 |
| 20260505174825 | 82 | 237 | 9.0 | 9.0 | 0.00 | 0.00 | 0.00 | 67 | 1005.7 |
| 20260505174323 | 81 | 222 | 8.0 | 9.0 | 0.00 | 0.00 | 0.00 | 69 | 1005.5 |
| 20260505173819 | 82 | 222 | 12.0 | 14.0 | 0.00 | 0.00 | 0.00 | 67 | 1005.4 |
| 20260505173315 | 81 | 219 | 9.0 | 10.0 | 0.00 | 0.00 | 0.00 | 68 | 1005.3 |
| 20260505172813 | 82 | 208 | 10.0 | 13.0 | 0.00 | 0.00 | 0.00 | 69 | 1005.3 |
| 20260505172310 | 81 | 223 | 8.0 | 10.0 | 0.00 | 0.00 | 0.00 | 71 | 1005.2 |
| 20260505171804 | 81 | 219 | 8.0 | 9.0 | 0.00 | 0.00 | 0.00 | 73 | 1005.4 |
| 20260505171302 | 81 | 221 | 9.0 | 10.0 | 0.00 | 0.00 | 0.00 | 72 | 1005.2 |
| 20260505170758 | 80 | 204 | 9.0 | 9.0 | 0.00 | 0.00 | 0.00 | 73 | 1005.2 |
| 20260505170255 | 80 | 232 | 6.0 | 7.0 | 0.00 | 0.00 | 0.00 | 74 | 1005.4 |
| 20260505165756 | 80 | 228 | 8.0 | 9.0 | 0.00 | 0.00 | 0.00 | 72 | 1005.3 |
| 20260505165252 | 80 | 202 | 10.0 | 14.0 | 0.00 | 0.00 | 0.00 | 72 | 1005.4 |
| 20260505164748 | 80 | 207 | 10.0 | 14.0 | 0.00 | 0.00 | 0.00 | 72 | 1005.3 |
| 20260505164245 | 79 | 219 | 7.0 | 10.0 | 0.00 | 0.00 | 0.00 | 74 | 1005.4 |
| 20260505163743 | 79 | 219 | 13.0 | 14.0 | 0.00 | 0.00 | 0.00 | 71 | 1005.5 |
| 20260505163241 | 80 | 203 | 10.0 | 13.0 | 0.00 | 0.00 | 0.00 | 70 | 1005.2 |
| 20260505162737 | 80 | 246 | 7.0 | 9.0 | 0.00 | 0.00 | 0.00 | 71 | 1005.4 |
| 20260505162234 | 80 | 244 | 7.0 | 8.0 | 0.00 | 0.00 | 0.00 | 71 | 1005.2 |
| 20260505161731 | 80 | 189 | 9.0 | 10.0 | 0.00 | 0.00 | 0.00 | 74 | 1005.1 |
| 20260505161230 | 80 | 210 | 10.0 | 13.0 | 0.00 | 0.00 | 0.00 | 73 | 1005.0 |
| 20260505160726 | 79 | 244 | 9.0 | 10.0 | 0.00 | 0.00 | 0.00 | 72 | 1004.8 |
| 20260505160225 | 79 | 247 | 11.0 | 11.0 | 0.00 | 0.00 | 0.00 | 72 | 1004.9 |
| 20260505153203 | 76 | 239 | 8.0 | 9.0 | 0.00 | 0.00 | 0.00 | 78 | 1004.7 |
| 20260505152700 | 75 | 219 | 7.0 | 9.0 | 0.00 | 0.00 | 0.00 | 80 | 1005.0 |
| 20260505152156 | 75 | 223 | 8.0 | 9.0 | 0.00 | 0.00 | 0.00 | 80 | 1005.0 |
| 20260505151651 | 75 | 191 | 11.0 | 13.0 | 0.00 | 0.00 | 0.00 | 80 | 1004.8 |
| 20260505151149 | 75 | 214 | 12.0 | 14.0 | 0.00 | 0.00 | 0.00 | 80 | 1005.0 |
| 20260505150645 | 74 | 202 | 11.0 | 14.0 | 0.00 | 0.00 | 0.00 | 81 | 1004.8 |
| 20260505150143 | 74 | 220 | 7.0 | 9.0 | 0.00 | 0.00 | 0.00 | 82 | 1004.8 |
| 20260505140611 | 71 | 203 | 9.0 | 10.0 | 0.00 | 0.00 | 0.00 | 87 | 1005.1 |
| 20260505140108 | 69 | 201 | 6.0 | 7.0 | 0.00 | 0.00 | 0.00 | 89 | 1004.7 |
| 20260505125024 | 67 | 195 | 7.0 | 8.0 | 0.00 | 0.00 | 0.00 | 92 | 1004.3 |
| 20260505124521 | 67 | 214 | 6.0 | 7.0 | 0.00 | 0.00 | 0.00 | 92 | 1004.4 |
| 20260505124017 | 67 | 204 | 9.0 | 10.0 | 0.00 | 0.00 | 0.00 | 92 | 1004.4 |
| 20260505123514 | 67 | 206 | 9.0 | 11.0 | 0.00 | 0.00 | 0.00 | 92 | 1004.0 |
| 20260505123010 | 66 | 189 | 7.0 | 8.0 | 0.00 | 0.00 | 0.00 | 92 | 1004.3 |
| 20260505122507 | 66 | 200 | 9.0 | 9.0 | 0.00 | 0.00 | 0.00 | 92 | 1003.9 |
| 20260505122004 | 66 | 217 | 5.0 | 7.0 | 0.00 | 0.00 | 0.00 | 92 | 1003.8 |
| 20260505121500 | 66 | 202 | 7.0 | 9.0 | 0.00 | 0.00 | 0.00 | 92 | 1004.2 |
| 20260505120956 | 66 | 198 | 5.0 | 6.0 | 0.00 | 0.00 | 0.00 | 92 | 1004.0 |
| 20260505120453 | 66 | 199 | 6.0 | 8.0 | 0.00 | 0.00 | 0.00 | 92 | 1003.9 |
| 20260505115953 | 66 | 196 | 8.0 | 8.0 | 0.00 | 0.00 | 0.00 | 92 | 1004.0 |
| 20260505115449 | 66 | 164 | 5.0 | 7.0 | 0.00 | 0.00 | 0.00 | 92 | 1003.8 |
| 20260505114947 | 66 | 213 | 8.0 | 9.0 | 0.00 | 0.00 | 0.00 | 92 | 1003.9 |
| 20260505114443 | 66 | 194 | 6.0 | 7.0 | 0.00 | 0.00 | 0.00 | 92 | 1004.0 |
| 20260505113940 | 66 | 205 | 7.0 | 9.0 | 0.00 | 0.00 | 0.00 | 92 | 1003.7 |
| 20260505113436 | 66 | 192 | 7.0 | 8.0 | 0.00 | 0.00 | 0.00 | 92 | 1003.6 |
| 20260505112932 | 66 | 205 | 5.0 | 6.0 | 0.00 | 0.00 | 0.00 | 92 | 1003.7 |
| 20260505112430 | 66 | 201 | 5.0 | 7.0 | 0.00 | 0.00 | 0.00 | 92 | 1003.6 |
| 20260505111926 | 66 | 204 | 7.0 | 8.0 | 0.00 | 0.00 | 0.00 | 92 | 1003.6 |
| 20260505111421 | 66 | 190 | 8.0 | 9.0 | 0.00 | 0.00 | 0.00 | 91 | 1003.6 |
| 20260505110917 | 66 | 196 | 8.0 | 9.0 | 0.00 | 0.00 | 0.00 | 91 | 1003.6 |
| 20260505110414 | 66 | 208 | 8.0 | 9.0 | 0.00 | 0.00 | 0.00 | 91 | 1003.5 |
| 20260505101845 | 67 | 186 | 7.0 | 8.0 | 0.00 | 0.00 | 0.00 | 90 | 1003.4 |
| 20260505101340 | 67 | 180 | 7.0 | 9.0 | 0.00 | 0.00 | 0.00 | 89 | 1003.4 |
| 20260505100836 | 67 | 219 | 9.0 | 10.0 | 0.00 | 0.00 | 0.00 | 89 | 1003.8 |
| 20260505100333 | 67 | 215 | 9.0 | 13.0 | 0.00 | 0.00 | 0.00 | 89 | 1003.6 |
| 20260505095828 | 67 | 201 | 8.0 | 10.0 | 0.00 | 0.00 | 0.00 | 89 | 1003.4 |
| 20260505095326 | 67 | 218 | 8.0 | 9.0 | 0.00 | 0.00 | 0.00 | 89 | 1003.5 |
| 20260505094822 | 67 | 226 | 8.0 | 10.0 | 0.00 | 0.00 | 0.00 | 89 | 1003.7 |
| 20260505094319 | 67 | 209 | 10.0 | 13.0 | 0.00 | 0.00 | 0.00 | 88 | 1003.5 |
| 20260505093814 | 67 | 197 | 11.0 | 14.0 | 0.00 | 0.00 | 0.00 | 88 | 1003.6 |
| 20260505093313 | 68 | 214 | 10.0 | 13.0 | 0.00 | 0.00 | 0.00 | 88 | 1003.7 |
| 20260505092808 | 68 | 184 | 8.0 | 10.0 | 0.00 | 0.00 | 0.00 | 88 | 1003.7 |
| 20260505092308 | 68 | 216 | 8.0 | 9.0 | 0.00 | 0.00 | 0.00 | 88 | 1003.6 |
| 20260505091804 | 68 | 201 | 8.0 | 10.0 | 0.00 | 0.00 | 0.00 | 87 | 1003.8 |